Regional Weather Roundup
Issued by NWS

Home | Current Version | Previous Version | Graphics & Text | Print | Product List | Glossary On
Versions: 1 2 3 4 5 6 7 8 9 10 11 12 13 14 15 16 17 18 19 20 21 22 23 24 25 26 27
000
ASUS45 KBOU 160607
RWRCO

WEATHER ROUNDUP FOR COLORADO
NATIONAL WEATHER SERVICE DENVER/BOULDER CO
1200 AM MDT WED AUG 16 2017

NOTE: "FAIR" INDICATES FEW OR NO CLOUDS BELOW 12000 FEET WITH NO
SIGNIFICANT WEATHER AND/OR OBSTRUCTIONS TO VISIBILITY.

COZ001>005-013-030-031-160700-
...NORTHWEST COLORADO...

CITY           SKY/WX    TMP DP  RH WIND       PRES   REMARKS
CRAIG          FAIR      48  45  89 CALM      30.15S
HAYDEN         FAIR      52  48  87 E6        30.19R
MEEKER         LGT RAIN  53  49  86 NE5       30.14F
RABBIT EARS PA MOCLDY    37  37 100 W7        30.34R
STEAMBOAT SPGS FAIR      50  48  94 CALM      30.18S
WALDEN         MOCLDY    46  41  81 E3        30.23S
$$

COZ006>008-011-160700-
...WEST CENTRAL VALLEYS...

CITY           SKY/WX    TMP DP  RH WIND       PRES   REMARKS
GRAND JUNCTION FAIR      68  46  45 S6        30.02R
MONTROSE       MOCLDY    65  34  31 SE10      30.09R
EAGLE          CLOUDY    60  42  51 CALM      30.15S
RIFLE          MOCLDY    64  44  48 NW10      30.09R
DELTA          NOT AVBL
NUCLA          MOCLDY    61  30  31 E13       30.13S
$$

COZ017>023-064>068-160700-
...SOUTHWEST COLORADO...

CITY           SKY/WX    TMP DP  RH WIND       PRES   REMARKS
DURANGO        CLOUDY    56  31  38 NE3       30.15R
CORTEZ         FAIR      52  37  56 E5        30.10R
PAGOSA SPRINGS CLOUDY    56  28  34 NE6       30.21F
TELLURIDE      NOT AVBL
WOLF CREEK PAS FAIR      37  28  70 SW6       30.49F
$$

COZ009-010-012-014-032>034-037-058>063-160700-
...CENTRAL COLORADO...

CITY           SKY/WX    TMP DP  RH WIND       PRES   REMARKS
ASPEN          FAIR      54  37  52 S8        30.19S
BUENA VISTA    FAIR      57  27  32 NW3       30.18S
COPPER MTN     MOCLDY    45  30  57 NW9       30.44R
BERTHOUD PASS  CLOUDY    32  30  93 NW26G33   30.43S WCI  18
COTTONWOOD PAS CLOUDY    55  19  24 W15G24    30.29R
GUNNISON       FAIR      50  39  66 CALM      30.21R
KREMMLING      MOCLDY    55  45  67 CALM      30.22R
LEADVILLE      MOCLDY    44  29  55 VRB3      30.30R
MONARCH PASS   CLOUDY    41  25  52 W20       30.53S
SALIDA         FAIR      63  29  27 W6        30.22S
SUNLIGHT       CLOUDY    43  32  65 W6        30.40S
WILKERSON PASS CLOUDY    45  28  53 N9        30.40F
$$

COZ069>075-160700-
...SAN LUIS VALLEY/SANGRE DE CRISTO MOUNTAINS...

CITY           SKY/WX    TMP DP  RH WIND       PRES   REMARKS
ALAMOSA        FAIR      57  37  47 SE5       30.17S
DEL NORTE      CLOUDY    58  30  34 W8        30.21S
LA VETA PASS   NOT AVBL
SAGUACHE       FAIR      55  34  44 NW13      30.19F
$$

COZ035-036-038>040-160700-
...NORTHERN COLORADO FRONT RANGE...

CITY           SKY/WX    TMP DP  RH WIND       PRES   REMARKS
DENVER INTL AP CLOUDY    58  53  84 SW10      30.05R
DMNS CITY PARK   N/A     58  55  89 SW8       30.05S
AURORA         MOCLDY    56  55  97 SW12      30.08F
FRONT RANGE AP CLOUDY    59  54  82 SW6       30.07R
ERIE MUNI ARPT FAIR      58  55  88 SW5       30.07F
BOULDER MUN AP FAIR      59  54  82 W3        30.04F
CENTENNIAL     MOCLDY    57  51  80 SW8       30.09F
BROOMFIELD     NOT AVBL
FORT COLLINS   FAIR      59  54  83 SW7       30.03F
LONGMONT       FAIR      61  54  78 W5        30.05F
$$

COZ041-046-047-076>085-087-088-160700-
...PIKES PEAK/PALMER DIVIDE AND SOUTHERN FOOTHILLS...

CITY           SKY/WX    TMP DP  RH WIND       PRES   REMARKS
COLO. SPRINGS  MOCLDY    59  49  69 N24G30    30.08F
A. F. ACADEMY  CLOUDY    56  48  75 N10       30.11F
SCHRIEVER AFB  FAIR      56  49  78 N22G31    30.07F
CHEYENNE MTN   MOCLDY    57  46  64 NW24G35   30.06F
ELLICOTT       FAIR     N/A N/A N/A N16       30.06R
FALCON         MOCLDY    53  49  84 N18G25    30.12F
FORT CARSON    MOCLDY    60  49  66 N24G31    30.05F
LIMON          CLOUDY    57  53  86 NW15      30.05R
MONUMENT HILL  CLOUDY    50  48  93 NW5       30.18R
CANON CITY     CLEAR     68  52  56 SE9       30.00R
WALSENBURG     FAIR      63  52  67 N5        30.06R
TRINIDAD       FAIR      61  52  72 W10       30.01R
$$

COZ042>045-048>051-090-091-160700-
...NORTHEAST COLORADO...

CITY           SKY/WX    TMP DP  RH WIND       PRES   REMARKS
GREELEY ARPT   FAIR      60  56  86 W6        30.01F
AKRON          CLOUDY    60  52  74 N8        29.98F
BURLINGTON     FAIR      63  58  83 N9        29.95S
WRAY           NOT AVBL
YUMA           FAIR      61  55  82 NW14      29.94F
STERLING       DRIZZLE   64  52  63 N12G18    29.89F
HOLYOKE        LGT RAIN  63  59  88 N8        29.95F
FORT MORGAN    MOCLDY    60  50  69 N16       29.98R
$$

COZ086-089-092>099-160700-
...SOUTHEAST COLORADO...

CITY           SKY/WX    TMP DP  RH WIND       PRES   REMARKS
PUEBLO         FAIR      66  50  56 N20G32    29.97R
LA JUNTA       FAIR      67  52  58 N20G29    29.94R
LAMAR          FAIR      64  59  83 VRB3      29.86R
SPRINGFIELD      N/A     68  57  68 S13       29.90F
$$




USA.gov is the U.S. government's official web portal to all federal, state and local government web resources and services.